Flag for U.S.A. Weather past 2 weeks in Modesto, California, U.S.A.

Now
71 °F

Clear.


Feels Like: 77 °F
Forecast: 66 / 99 °F
Wind: No wind

Location: Modesto City-County-Sham Field

Current Time: Jul 25, 2014 at 3:22:39 AM

Latest Report: Jul 25, 2014 at 2:53 AM


Visibility: 10 mi

Pressure: 29.80 "Hg

Humidity: 51%

Dew point: 52 °F

Location of ModestoLocation

Historic Weather in Modesto — Graph

°F

Modesto temperature yesterday

Maximum temperature yesterday: 94 °F (at 4:53 PM)
Minimum temperature yesterday: 65 °F (at 4:53 AM)
Average temperature yesterday: 79 °F

Past Weeks' High & Low Weather Summary

 TemperatureHumidityPressure
High98 °F (Jul 13, 4:53 PM)84% (Jul 12, 5:53 AM)30.12 "Hg (Jul 12, 5:53 AM)
Low59 °F (Jul 12, 5:53 AM)21% (Jul 12, 5:53 PM)29.78 "Hg (Jul 24, 6:53 PM)
Average76 °F53%29.92 "Hg
* Reported Jul 10 1:53 AM — Jul 25 1:53 AM, Modesto, Weather by CustomWeather, © 2014

Note: Actual official high and low records may vary slightly from our data, if they occured in-between our weather recording intervals... More about our weather records

Advertising

Modesto weather history for previous 24 hours

 ConditionsComfort  
Time TempWeatherWind HumidityBarometerVisibility
1:53 AM
Jul 25
73 °FClear.3 mph50%29.80 "Hg10 mi
12:53 AM76 °FClear.6 mph47%29.81 "Hg10 mi
11:53 PM
Jul 24
77 °FClear.7 mph47%29.81 "Hg10 mi
10:53 PM79 °FClear.8 mph42%29.80 "Hg10 mi
9:53 PM82 °FClear.9 mph35%29.80 "Hg10 mi
8:53 PM85 °FSunny.8 mph28%29.78 "Hg10 mi
7:53 PM90 °FSunny.12 mph24%29.78 "Hg10 mi
6:53 PM92 °FSunny.12 mph23%29.78 "Hg10 mi
5:53 PM94 °FSunny.15 mph21%29.79 "Hg10 mi
4:53 PM94 °FSunny.13 mph25%29.80 "Hg10 mi
3:53 PM93 °FSunny.14 mph27%29.82 "Hg10 mi
2:53 PM92 °FSunny.13 mph28%29.85 "Hg10 mi
1:53 PM90 °FSunny.13 mph29%29.88 "Hg10 mi
12:53 PM87 °FSunny.10 mph30%29.90 "Hg10 mi
11:53 AM84 °FSunny.13 mph41%29.93 "Hg10 mi
10:53 AM80 °FSunny.12 mph47%29.95 "Hg10 mi
9:53 AM76 °FSunny.10 mph50%29.96 "Hg10 mi
8:53 AM73 °FSunny.12 mph53%29.98 "Hg10 mi
7:53 AM69 °FSunny.8 mph63%29.98 "Hg10 mi
6:53 AM66 °FClear.9 mph70%29.97 "Hg10 mi
5:53 AM65 °FClear.8 mph76%29.96 "Hg10 mi
4:53 AM65 °FClear.5 mph76%29.96 "Hg10 mi
3:53 AM66 °FClear.3 mph73%29.96 "Hg10 mi
Weather by CustomWeather, © 2014

See weather overviewHow to use our weather pages